Terug naar catalogus

COSMOS 1574

ActiefMilitairPO
NORAD 15055·PAYLOAD·🇷🇺 Russia

Gelanceerd Jun 21, 1984 vanaf Plesetsk Cosmodrome

Loading…

Volgende Passages (komende 24 uur)

TLE

VersSource: Space-Track

Epoch: Sep 14, 2026, 05:49 UTC

1 15055U 84062A   26257.24271924  .00000058  00000-0  45009-4 0  9994
2 15055  82.9610  12.4010 0027794 160.3980 217.8067 13.74564421117791

Volg COSMOS 1574 in realtime met AllMySat

Download on the App Store